AUA27A LOWW-EDDV

Flight info

Callsign AUA27A
Flight time N/A
Altitude 36000
Route BUWUT DCT DITIS DCT KILNU DCT GOLAT DCT BIRKA/N0393F240 T803 GITEX GITEX1Z
Aircraft A321/M-SDE3FGHIRWY/LB1

Departure

Time 2026-05-05 19:55
Airport Vienna International Airport (LOWW)

Arrival

Time N/A
Airport Hannover Airport (EDDV)
Time Latitude Longitude Altitude Speed Heading
2026-05-05 19:12 48.11667 16.56896 600 ft 0 kts 27°
2026-05-05 19:42 48.11666 16.56896 600 ft 1 kts 27°
2026-05-05 19:42 48.11653 16.56886 600 ft 2 kts 27°
2026-05-05 19:42 48.11639 16.56876 600 ft 2 kts 27°
2026-05-05 19:43 48.11626 16.56865 600 ft 2 kts 27°
2026-05-05 19:43 48.11615 16.56857 601 ft 0 kts 27°
2026-05-05 19:43 48.11606 16.56852 601 ft 1 kts 347°
2026-05-05 19:43 48.11597 16.56860 601 ft 0 kts 299°
2026-05-05 19:44 48.11595 16.56870 601 ft 1 kts 295°
2026-05-05 19:44 48.11594 16.56871 601 ft 0 kts 295°
2026-05-05 19:46 48.11601 16.56852 601 ft 4 kts 296°
2026-05-05 19:46 48.11625 16.56778 600 ft 11 kts 296°
2026-05-05 19:47 48.11666 16.56652 599 ft 14 kts 296°
2026-05-05 19:47 48.11702 16.56540 597 ft 12 kts 295°
2026-05-05 19:47 48.11740 16.56422 596 ft 10 kts 297°
2026-05-05 19:47 48.11739 16.56317 596 ft 11 kts 223°
2026-05-05 19:48 48.11684 16.56262 596 ft 6 kts 209°
2026-05-05 19:48 48.11641 16.56265 596 ft 8 kts 142°
2026-05-05 19:48 48.11605 16.56344 597 ft 10 kts 117°
2026-05-05 19:48 48.11572 16.56443 598 ft 11 kts 117°
2026-05-05 19:49 48.11537 16.56548 599 ft 11 kts 116°
2026-05-05 19:49 48.11502 16.56657 600 ft 12 kts 116°
2026-05-05 19:49 48.11465 16.56772 602 ft 12 kts 117°
2026-05-05 19:49 48.11427 16.56886 602 ft 13 kts 116°
2026-05-05 19:50 48.11384 16.57018 604 ft 14 kts 116°
2026-05-05 19:50 48.11336 16.57164 605 ft 16 kts 116°
2026-05-05 19:50 48.11301 16.57293 606 ft 10 kts 81°
2026-05-05 19:50 48.11368 16.57370 605 ft 15 kts 27°
2026-05-05 19:51 48.11480 16.57454 604 ft 19 kts 27°
2026-05-05 19:51 48.11591 16.57540 603 ft 16 kts 17°
2026-05-05 19:51 48.11704 16.57513 602 ft 17 kts 344°
2026-05-05 19:51 48.11823 16.57464 600 ft 18 kts 344°
2026-05-05 19:52 48.11938 16.57415 599 ft 12 kts 345°
2026-05-05 19:52 48.12012 16.57439 598 ft 11 kts 73°
2026-05-05 19:52 48.12002 16.57547 599 ft 6 kts 104°
2026-05-05 19:52 48.11998 16.57571 599 ft 0 kts 104°
2026-05-05 19:53 48.11997 16.57576 599 ft 2 kts 104°
2026-05-05 19:53 48.11990 16.57620 599 ft 6 kts 105°
2026-05-05 19:54 48.11976 16.57697 600 ft 8 kts 106°
2026-05-05 19:54 48.11963 16.57790 600 ft 9 kts 88°
2026-05-05 19:54 48.11936 16.57837 600 ft 7 kts 163°
2026-05-05 19:54 48.11754 16.57914 602 ft 61 kts 165°
2026-05-05 19:55 48.11123 16.58182 607 ft 126 kts 165°
2026-05-05 19:55 48.10119 16.58606 890 ft 156 kts 166°
2026-05-05 19:55 48.09083 16.59050 1539 ft 160 kts 168°
2026-05-05 19:55 48.08021 16.59500 2284 ft 161 kts 169°
2026-05-05 19:56 48.06945 16.59945 2888 ft 166 kts 172°
2026-05-05 19:56 48.05867 16.60743 3419 ft 184 kts 150°
2026-05-05 19:56 48.05003 16.62228 4001 ft 199 kts 131°
2026-05-05 19:56 48.04496 16.64214 4562 ft 216 kts 106°
2026-05-05 19:57 48.04611 16.66501 5151 ft 230 kts 77°
2026-05-05 19:57 48.05426 16.68532 5816 ft 234 kts 47°
2026-05-05 19:57 48.06743 16.69985 6381 ft 240 kts 33°
2026-05-05 19:57 48.08171 16.71410 6754 ft 256 kts 33°
2026-05-05 19:58 48.09689 16.72987 7083 ft 276 kts 35°
2026-05-05 19:58 48.11290 16.74701 7575 ft 290 kts 36°
2026-05-05 19:58 48.12957 16.76535 8004 ft 306 kts 37°
2026-05-05 19:58 48.14714 16.78324 8743 ft 309 kts 26°
2026-05-05 19:59 48.16756 16.78999 9507 ft 307 kts 356°
2026-05-05 19:59 48.18858 16.78556 10281 ft 307 kts 348°
2026-05-05 19:59 48.20990 16.77926 10748 ft 320 kts 347°
2026-05-05 19:59 48.23237 16.77259 11067 ft 338 kts 348°
2026-05-05 20:00 48.23582 16.77160 11115 ft 340 kts 348°
2026-05-05 20:00 48.25522 16.76616 11492 ft 349 kts 348°
2026-05-05 20:01 48.27933 16.75966 12160 ft 353 kts 349°
2026-05-05 20:01 48.30372 16.75320 12895 ft 355 kts 349°
2026-05-05 20:01 48.32786 16.74605 13553 ft 358 kts 345°
2026-05-05 20:01 48.35156 16.73470 14186 ft 360 kts 337°
2026-05-05 20:02 48.37437 16.71899 14821 ft 362 kts 332°
2026-05-05 20:02 48.39697 16.70135 15425 ft 366 kts 330°
2026-05-05 20:02 48.41942 16.68322 16032 ft 368 kts 327°
2026-05-05 20:02 48.43914 16.65915 16590 ft 366 kts 309°
2026-05-05 20:03 48.45264 16.62720 17178 ft 363 kts 291°
2026-05-05 20:03 48.46166 16.59185 17774 ft 364 kts 288°
2026-05-05 20:03 48.47028 16.55581 18326 ft 367 kts 287°
2026-05-05 20:03 48.47885 16.52003 18858 ft 369 kts 288°
2026-05-05 20:04 48.48777 16.48312 19402 ft 372 kts 288°
2026-05-05 20:04 48.49665 16.44665 19920 ft 375 kts 288°
2026-05-05 20:04 48.50563 16.41000 20434 ft 378 kts 288°
2026-05-05 20:04 48.51471 16.37292 20933 ft 380 kts 288°
2026-05-05 20:05 48.52393 16.33524 21425 ft 383 kts 288°
2026-05-05 20:05 48.53321 16.29736 21928 ft 385 kts 287°
2026-05-05 20:05 48.54245 16.25953 22416 ft 388 kts 288°
2026-05-05 20:05 48.55179 16.22119 22884 ft 391 kts 288°
2026-05-05 20:06 48.56122 16.18241 23355 ft 393 kts 288°
2026-05-05 20:06 48.57054 16.14423 23816 ft 395 kts 288°
2026-05-05 20:06 48.58112 16.10531 24272 ft 399 kts 291°
2026-05-05 20:06 48.59211 16.06690 24721 ft 401 kts 291°
2026-05-05 20:07 48.60325 16.02820 25165 ft 404 kts 291°
2026-05-05 20:07 48.61435 15.98959 25595 ft 406 kts 291°
2026-05-05 20:07 48.62554 15.95053 26008 ft 409 kts 291°
2026-05-05 20:07 48.63690 15.91079 26427 ft 411 kts 291°
2026-05-05 20:08 48.64821 15.87108 26839 ft 413 kts 291°
2026-05-05 20:08 48.65948 15.83150 27238 ft 415 kts 291°
2026-05-05 20:08 48.67084 15.79149 27630 ft 417 kts 291°
2026-05-05 20:08 48.68227 15.75113 28016 ft 419 kts 291°
2026-05-05 20:09 48.69373 15.71063 28398 ft 421 kts 291°
2026-05-05 20:09 48.70523 15.66987 28756 ft 423 kts 291°
2026-05-05 20:09 48.71683 15.62872 29106 ft 425 kts 291°
2026-05-05 20:09 48.72837 15.58773 29443 ft 427 kts 291°
2026-05-05 20:10 48.74008 15.54612 29774 ft 429 kts 291°
2026-05-05 20:10 48.75168 15.50479 30090 ft 431 kts 291°
2026-05-05 20:10 48.76334 15.46309 30402 ft 433 kts 291°
2026-05-05 20:10 48.77515 15.42086 30786 ft 433 kts 291°
2026-05-05 20:11 48.78685 15.37956 31183 ft 432 kts 292°
2026-05-05 20:11 48.80009 15.33820 31573 ft 432 kts 295°
2026-05-05 20:11 48.81469 15.29833 31969 ft 432 kts 298°
2026-05-05 20:11 48.83083 15.25946 32362 ft 432 kts 302°
2026-05-05 20:12 48.84805 15.22208 32747 ft 431 kts 303°
2026-05-05 20:12 48.86549 15.18542 33127 ft 430 kts 304°
2026-05-05 20:12 48.88365 15.14994 33480 ft 430 kts 307°
2026-05-05 20:12 48.90341 15.11537 33835 ft 430 kts 311°
2026-05-05 20:13 48.92401 15.08310 34178 ft 430 kts 314°
2026-05-05 20:13 48.94593 15.05224 34448 ft 431 kts 316°
2026-05-05 20:13 48.96836 15.02206 34694 ft 432 kts 317°
2026-05-05 20:13 48.99081 14.99211 34926 ft 432 kts 317°
2026-05-05 20:14 49.01341 14.96195 35145 ft 433 kts 317°
2026-05-05 20:14 49.03598 14.93174 35345 ft 434 kts 317°
2026-05-05 20:14 49.05861 14.90140 35529 ft 435 kts 317°
2026-05-05 20:14 49.08135 14.87084 35694 ft 436 kts 316°
2026-05-05 20:15 49.10406 14.84026 35729 ft 438 kts 316°
2026-05-05 20:15 49.14915 14.77935 35736 ft 438 kts 316°
2026-05-05 20:16 49.19484 14.71740 35742 ft 440 kts 316°
2026-05-05 20:16 49.24070 14.65513 35745 ft 441 kts 316°
2026-05-05 20:17 49.28634 14.59295 35744 ft 441 kts 316°
2026-05-05 20:17 49.33212 14.53041 35738 ft 442 kts 316°
2026-05-05 20:18 49.37805 14.46756 35737 ft 443 kts 316°
2026-05-05 20:18 49.42387 14.40467 35734 ft 444 kts 316°
2026-05-05 20:19 49.47017 14.34099 35733 ft 445 kts 315°
2026-05-05 20:19 49.51629 14.27736 35738 ft 445 kts 315°
2026-05-05 20:20 49.56237 14.21363 35736 ft 445 kts 315°
2026-05-05 20:20 49.60849 14.14964 35739 ft 447 kts 315°
2026-05-05 20:21 49.65442 14.08577 35738 ft 446 kts 315°
2026-05-05 20:21 49.70051 14.02150 35742 ft 447 kts 315°
2026-05-05 20:22 49.74508 13.95915 35749 ft 447 kts 315°
2026-05-05 20:22 49.79101 13.89478 35756 ft 448 kts 315°
2026-05-05 20:23 49.83731 13.82971 35755 ft 448 kts 315°
2026-05-05 20:23 49.88349 13.76466 35755 ft 449 kts 315°
2026-05-05 20:24 49.92949 13.69969 35754 ft 448 kts 314°
2026-05-05 20:24 49.97523 13.63481 35753 ft 448 kts 314°
2026-05-05 20:25 50.02139 13.56922 35754 ft 450 kts 315°
2026-05-05 20:25 50.06768 13.50327 35749 ft 450 kts 314°
2026-05-05 20:26 50.11386 13.43732 35740 ft 451 kts 314°
2026-05-05 20:26 50.16019 13.37093 35753 ft 451 kts 314°
2026-05-05 20:27 50.20670 13.30414 35752 ft 451 kts 313°
2026-05-05 20:27 50.25264 13.23795 35765 ft 452 kts 313°
2026-05-05 20:28 50.29868 13.17142 35763 ft 452 kts 313°
2026-05-05 20:28 50.34502 13.10425 35766 ft 454 kts 313°
2026-05-05 20:29 50.39118 13.03715 35770 ft 454 kts 313°
2026-05-05 20:29 50.43749 12.96968 35772 ft 455 kts 313°
2026-05-05 20:30 50.48101 12.89850 35765 ft 452 kts 306°
2026-05-05 20:30 50.51909 12.82024 35766 ft 450 kts 302°
2026-05-05 20:31 50.55520 12.74020 35772 ft 451 kts 301°
2026-05-05 20:31 50.59162 12.65924 35771 ft 452 kts 302°
2026-05-05 20:32 50.62791 12.57858 35775 ft 453 kts 302°
2026-05-05 20:32 50.66424 12.49764 35779 ft 454 kts 302°
2026-05-05 20:33 50.70061 12.41638 35770 ft 454 kts 302°
2026-05-05 20:33 50.73684 12.33519 35768 ft 453 kts 301°
2026-05-05 20:34 50.77322 12.25347 35766 ft 454 kts 301°
2026-05-05 20:34 50.80945 12.17174 35765 ft 455 kts 301°
2026-05-05 20:35 50.84566 12.08975 35774 ft 457 kts 301°
2026-05-05 20:35 50.88204 12.00709 35770 ft 457 kts 301°
2026-05-05 20:36 50.91871 11.92452 35682 ft 459 kts 302°
2026-05-05 20:36 50.93763 11.88424 35550 ft 460 kts 303°
2026-05-05 20:36 50.95665 11.84409 35397 ft 460 kts 303°
2026-05-05 20:36 50.97587 11.80354 35265 ft 461 kts 303°
2026-05-05 20:37 50.99513 11.76276 35129 ft 461 kts 303°
2026-05-05 20:37 51.03348 11.68117 34814 ft 463 kts 303°
2026-05-05 20:37 51.05283 11.63982 34622 ft 465 kts 303°
2026-05-05 20:38 51.07191 11.59904 34428 ft 466 kts 303°
2026-05-05 20:38 51.09132 11.55752 34236 ft 466 kts 303°
2026-05-05 20:38 51.11048 11.51640 34040 ft 466 kts 303°
2026-05-05 20:38 51.12994 11.47459 33843 ft 466 kts 303°
2026-05-05 20:39 51.14895 11.43365 33651 ft 467 kts 303°
2026-05-05 20:39 51.16819 11.39219 33458 ft 467 kts 303°
2026-05-05 20:39 51.18758 11.35034 33262 ft 466 kts 303°
2026-05-05 20:39 51.20674 11.30887 33079 ft 465 kts 302°
2026-05-05 20:40 51.22589 11.26737 32880 ft 466 kts 302°
2026-05-05 20:40 51.24491 11.22605 32694 ft 465 kts 302°
2026-05-05 20:40 51.26403 11.18451 32504 ft 465 kts 302°
2026-05-05 20:40 51.28306 11.14301 32305 ft 465 kts 302°
2026-05-05 20:41 51.30233 11.10094 32112 ft 466 kts 302°
2026-05-05 20:41 51.32131 11.05942 31923 ft 466 kts 302°
2026-05-05 20:41 51.34110 11.01858 31794 ft 467 kts 307°
2026-05-05 20:42 51.38802 10.94628 31643 ft 473 kts 319°
2026-05-05 20:42 51.41499 10.91579 31031 ft 471 kts 325°
2026-05-05 20:42 51.44342 10.89041 30425 ft 468 kts 332°
2026-05-05 20:42 51.47275 10.86964 29834 ft 465 kts 335°
2026-05-05 20:43 51.50272 10.85031 29229 ft 461 kts 336°
2026-05-05 20:43 51.53255 10.83141 28622 ft 457 kts 336°
2026-05-05 20:43 51.56163 10.81293 28035 ft 452 kts 336°
2026-05-05 20:43 51.59052 10.79434 27437 ft 448 kts 336°
2026-05-05 20:44 51.60005 10.78816 27239 ft 446 kts 336°
2026-05-05 20:44 51.64941 10.75599 26209 ft 438 kts 336°
2026-05-05 20:44 51.67758 10.73753 25611 ft 434 kts 336°
2026-05-05 20:44 51.70545 10.71924 25016 ft 429 kts 336°
2026-05-05 20:45 51.73304 10.70111 24434 ft 425 kts 336°